| time (UTC) | temp C | wind direction | speed KPH | gust KPH | rain 1hr cm | rain 24hr cm | rain mn cm | humidity % | barometer mb |
| 20260906050017 | 23 | 68 | 6.4 | 12.9 | 0.00 | 0.00 | 0.00 | 90 | 997.1 |
| 20260906043017 | 24 | 68 | 9.7 | 20.9 | 0.00 | 0.00 | 0.00 | 90 | 996.7 |
| 20260906040017 | 24 | 68 | 9.7 | 20.9 | 0.00 | 0.00 | 0.00 | 89 | 996.4 |
| 20260906033017 | 25 | 68 | 9.7 | 20.9 | 0.00 | 0.00 | 0.00 | 89 | 996.1 |
| 20260906030018 | 25 | 68 | 11.3 | 20.9 | 0.00 | 0.00 | 0.00 | 89 | 995.9 |
| 20260906023017 | 26 | 45 | 9.7 | 17.7 | 0.00 | 0.00 | 0.00 | 89 | 995.9 |
| 20260906020017 | 26 | 45 | 11.3 | 17.7 | 0.00 | 0.00 | 0.00 | 87 | 995.5 |
| 20260906013017 | 27 | 45 | 12.9 | 24.1 | 0.00 | 0.00 | 0.00 | 86 | 995.1 |
| 20260906010037 | 28 | 45 | 11.3 | 24.1 | 0.00 | 0.00 | 0.00 | 83 | 994.8 |
| 20260906003038 | 29 | 45 | 4.8 | 9.7 | 0.00 | 0.00 | 0.00 | 81 | 994.5 |
| 20260906000017 | 30 | 45 | 6.4 | 12.9 | 0.00 | 0.00 | 0.00 | 76 | 994.6 |
| 20260905233017 | 31 | 45 | 6.4 | 17.7 | 0.00 | 0.00 | 0.00 | 73 | 994.4 |
| 20260905230037 | 32 | 45 | 6.4 | 12.9 | 0.00 | 0.00 | 0.00 | 71 | 994.2 |
| 20260905223017 | 32 | 45 | 6.4 | 12.9 | 0.00 | 0.00 | 0.00 | 71 | 994.2 |
| 20260905220037 | 32 | 45 | 8.0 | 22.5 | 0.00 | 0.00 | 0.00 | 72 | 994.0 |
| 20260905213037 | 33 | 0 | 4.8 | 14.5 | 0.00 | 0.00 | 0.00 | 66 | 994.2 |
| 20260905210037 | 33 | 0 | 4.8 | 9.7 | 0.00 | 0.00 | 0.00 | 66 | 994.6 |
| 20260905203017 | 32 | 338 | 4.8 | 8.0 | 0.00 | 0.00 | 0.00 | 68 | 994.7 |
| 20260905200017 | 33 | 338 | 4.8 | 9.7 | 0.00 | 0.00 | 0.00 | 69 | 994.9 |
| 20260905193017 | 33 | 338 | 4.8 | 11.3 | 0.00 | 0.00 | 0.00 | 66 | 995.1 |
| 20260905190019 | 33 | 315 | 4.8 | 9.7 | 0.00 | 0.00 | 0.00 | 67 | 995.3 |
| 20260905183017 | 33 | 315 | 4.8 | 12.9 | 0.00 | 0.00 | 0.00 | 65 | 995.3 |
| 20260905180017 | 33 | 338 | 6.4 | 12.9 | 0.00 | 0.00 | 0.00 | 67 | 995.4 |
| 20260905173017 | 33 | 45 | 4.8 | 11.3 | 0.00 | 0.00 | 0.00 | 67 | 995.6 |
| 20260905170019 | 32 | 315 | 8.0 | 16.1 | 0.00 | 0.00 | 0.00 | 67 | 995.8 |
| 20260905163017 | 32 | 293 | 9.7 | 19.3 | 0.00 | 0.00 | 0.00 | 67 | 996.0 |
| 20260905160017 | 32 | 293 | 8.0 | 16.1 | 0.00 | 0.00 | 0.00 | 67 | 995.8 |
| 20260905153037 | 32 | 293 | 4.8 | 16.1 | 0.00 | 0.00 | 0.00 | 66 | 995.4 |
| 20260905150017 | 31 | 248 | 3.2 | 11.3 | 0.00 | 0.00 | 0.00 | 68 | 995.4 |
| 20260905143017 | 30 | 248 | 3.2 | 6.4 | 0.00 | 0.00 | 0.00 | 72 | 995.2 |
| 20260905140018 | 29 | 293 | 4.8 | 11.3 | 0.00 | 0.00 | 0.00 | 74 | 995.3 |
| 20260905133017 | 28 | 270 | 1.6 | 11.3 | 0.00 | 0.00 | 0.00 | 75 | 995.0 |
| 20260905130018 | 27 | 270 | 1.6 | 6.4 | 0.00 | 0.00 | 0.00 | 80 | 994.8 |
| 20260905123017 | 26 | 293 | 1.6 | 8.0 | 0.00 | 0.00 | 0.00 | 81 | 994.9 |
| 20260905120018 | 25 | 225 | 1.6 | 4.8 | 0.00 | 0.00 | 0.00 | 83 | 994.6 |
| 20260905113017 | 25 | 225 | 1.6 | 4.8 | 0.00 | 0.00 | 0.00 | 82 | 994.1 |
| 20260905110017 | 25 | 225 | 3.2 | 8.0 | 0.00 | 0.00 | 0.00 | 82 | 994.0 |
| 20260905103017 | 26 | 225 | 4.8 | 8.0 | 0.00 | 0.00 | 0.00 | 82 | 994.0 |
| 20260905100018 | 25 | 225 | 1.6 | 6.4 | 0.00 | 0.00 | 0.00 | 82 | 994.1 |
| 20260905093017 | 26 | 225 | 1.6 | 4.8 | 0.00 | 0.00 | 0.00 | 82 | 994.2 |
| 20260905090019 | 26 | 225 | 3.2 | 4.8 | 0.00 | 0.00 | 0.00 | 80 | 994.2 |
| 20260905083019 | 26 | 225 | 1.6 | 3.2 | 0.00 | 0.00 | 0.00 | 80 | 994.3 |
| 20260905080017 | 26 | 225 | 3.2 | 8.0 | 0.00 | 0.00 | 0.00 | 80 | 994.3 |
| 20260905073018 | 26 | 225 | 8.0 | 11.3 | 0.00 | 0.00 | 0.00 | 82 | 994.2 |
| 20260905070017 | 27 | 225 | 8.0 | 9.7 | 0.00 | 0.00 | 0.00 | 78 | 994.4 |
| 20260905063018 | 27 | 158 | 4.8 | 8.0 | 0.00 | 0.00 | 0.00 | 79 | 994.7 |
| 20260905060018 | 26 | 158 | 1.6 | 6.4 | 0.00 | 0.00 | 0.00 | 86 | 994.7 |
| 20260905053038 | 26 | 158 | 4.8 | 9.7 | 0.00 | 0.00 | 0.00 | 84 | 994.4 |